Tracking 29489 objects as of 9-Sep-2024
HD Live streaming from Space Station
objects crossing your sky now

STARLINK-30917

Track STARLINK-30917 now!
10-day predictions
STARLINK-30917 is classified as:


NORAD ID: 58419
Int'l Code: 2023-180T
Perigee: 565.3 km
Apogee: 567.2 km
Inclination: 43.0 °
Period: 95.8 minutes
Semi major axis: 6937 km
RCS: Unknown
Launch date: November 22, 2023
Source: United States (US)
Launch site: AIR FORCE EASTERN TEST RANGE (AFETR)
Your satellite tracking list
Your tracking list is empty




NASA's NSSDC Master Catalog

Two Line Element Set (TLE):
1 58419U 23180T   24253.09259571  .00001387  00000-0  11776-3 0  9999
2 58419  43.0013 145.9233 0001380 275.1845  84.8839 15.02531842 45360
Source of the keplerian elements: AFSPC